Time,TemperatureF,DewpointF,PressureIn,WindDirection,WindDirectionDegrees,WindSpeedMPH,WindSpeedGustMPH,Humidity,HourlyPrecipIn,Conditions,Clouds,dailyrainin,SoftwareType,DateUTC
2013-03-03 00:00:00,28.0,18.0,30.20,North,360,5.0,5.0,68,0.00,,,0.00,Rainwise IP-100,2013-03-03 06:00:00,
2013-03-03 00:05:00,28.0,18.0,30.21,North,360,2.0,7.0,67,0.00,,,0.00,Rainwise IP-100,2013-03-03 06:05:00,
2013-03-03 00:10:00,28.0,18.0,30.21,North,360,4.0,6.0,66,0.00,,,0.00,Rainwise IP-100,2013-03-03 06:10:00,
2013-03-03 00:15:00,28.0,16.0,30.20,North,360,4.0,8.0,63,0.00,,,0.00,Rainwise IP-100,2013-03-03 06:15:00,
2013-03-03 00:20:00,28.0,18.0,30.20,North,360,3.0,5.0,67,0.00,,,0.00,Rainwise IP-100,2013-03-03 06:20:00,
2013-03-03 00:25:00,28.0,18.0,30.20,North,360,0.0,5.0,67,0.00,,,0.00,Rainwise IP-100,2013-03-03 06:25:00,
2013-03-03 00:30:00,28.0,18.0,30.20,North,360,0.0,6.0,66,0.00,,,0.00,Rainwise IP-100,2013-03-03 06:30:00,
2013-03-03 00:35:00,28.0,18.0,30.20,North,360,1.0,4.0,67,0.00,,,0.00,Rainwise IP-100,2013-03-03 06:35:00,
2013-03-03 00:40:00,28.0,18.0,30.20,North,360,1.0,3.0,68,0.00,,,0.00,Rainwise IP-100,2013-03-03 06:40:00,
2013-03-03 00:45:00,28.0,21.0,30.20,North,360,0.0,3.0,71,0.00,,,0.00,Rainwise IP-100,2013-03-03 06:45:00,
2013-03-03 00:50:00,28.0,21.0,30.20,North,360,0.0,4.0,70,0.00,,,0.00,Rainwise IP-100,2013-03-03 06:50:00,
2013-03-03 00:55:00,28.0,18.0,30.20,North,360,2.0,5.0,67,0.00,,,0.00,Rainwise IP-100,2013-03-03 06:55:00,
2013-03-03 01:00:00,28.0,18.0,30.20,North,360,1.0,4.0,67,0.00,,,0.00,Rainwise IP-100,2013-03-03 07:00:00,
2013-03-03 01:05:00,28.0,18.0,30.20,North,360,3.0,3.0,69,0.00,,,0.00,Rainwise IP-100,2013-03-03 07:05:00,
2013-03-03 01:10:00,28.0,18.0,30.20,North,360,0.0,4.0,69,0.00,,,0.00,Rainwise IP-100,2013-03-03 07:10:00,
2013-03-03 01:15:00,28.0,21.0,30.19,North,360,0.0,1.0,70,0.00,,,0.00,Rainwise IP-100,2013-03-03 07:15:00,
2013-03-03 01:20:00,28.0,18.0,30.19,North,360,1.0,2.0,69,0.00,,,0.00,Rainwise IP-100,2013-03-03 07:20:00,
2013-03-03 01:25:00,28.0,21.0,30.19,North,360,6.0,6.0,72,0.00,,,0.00,Rainwise IP-100,2013-03-03 07:25:00,
2013-03-03 01:30:00,28.0,18.0,30.19,North,360,3.0,7.0,68,0.00,,,0.00,Rainwise IP-100,2013-03-03 07:30:00,
2013-03-03 01:35:00,28.0,18.0,30.19,North,360,2.0,7.0,69,0.00,,,0.00,Rainwise IP-100,2013-03-03 07:35:00,
2013-03-03 01:40:00,27.0,18.0,30.19,North,360,1.0,3.0,69,0.00,,,0.00,Rainwise IP-100,2013-03-03 07:40:00,
2013-03-03 01:45:00,27.0,18.0,30.20,North,360,3.0,6.0,68,0.00,,,0.00,Rainwise IP-100,2013-03-03 07:45:00,
2013-03-03 01:51:00,27.0,18.0,30.20,North,360,2.0,5.0,69,0.00,,,0.00,Rainwise IP-100,2013-03-03 07:51:00,
2013-03-03 01:56:00,27.0,18.0,30.19,North,360,1.0,4.0,68,0.00,,,0.00,Rainwise IP-100,2013-03-03 07:56:00,
2013-03-03 02:01:00,26.0,18.0,30.19,North,360,0.0,3.0,68,0.00,,,0.00,Rainwise IP-100,2013-03-03 08:01:00,
2013-03-03 02:06:00,26.0,18.0,30.19,North,360,1.0,3.0,68,0.00,,,0.00,Rainwise IP-100,2013-03-03 08:06:00,
2013-03-03 02:11:00,26.0,18.0,30.19,North,360,0.0,4.0,68,0.00,,,0.00,Rainwise IP-100,2013-03-03 08:11:00,
2013-03-03 02:16:00,26.0,18.0,30.19,North,360,0.0,1.0,68,0.00,,,0.00,Rainwise IP-100,2013-03-03 08:16:00,
2013-03-03 02:21:00,26.0,18.0,30.19,North,360,0.0,2.0,69,0.00,,,0.00,Rainwise IP-100,2013-03-03 08:21:00,
2013-03-03 02:26:00,26.0,18.0,30.19,North,360,0.0,2.0,68,0.00,,,0.00,Rainwise IP-100,2013-03-03 08:26:00,
2013-03-03 02:31:00,26.0,18.0,30.19,North,360,0.0,2.0,69,0.00,,,0.00,Rainwise IP-100,2013-03-03 08:31:00,
2013-03-03 02:36:00,26.0,18.0,30.19,North,360,2.0,5.0,70,0.00,,,0.00,Rainwise IP-100,2013-03-03 08:36:00,
2013-03-03 02:41:00,25.0,18.0,30.19,North,360,2.0,4.0,70,0.00,,,0.00,Rainwise IP-100,2013-03-03 08:41:00,
2013-03-03 02:46:00,25.0,18.0,30.18,North,360,1.0,6.0,70,0.00,,,0.00,Rainwise IP-100,2013-03-03 08:46:00,
2013-03-03 02:51:00,25.0,18.0,30.18,North,360,0.0,5.0,70,0.00,,,0.00,Rainwise IP-100,2013-03-03 08:51:00,
2013-03-03 02:56:00,25.0,18.0,30.19,North,360,1.0,2.0,71,0.00,,,0.00,Rainwise IP-100,2013-03-03 08:56:00,
2013-03-03 03:01:00,25.0,18.0,30.19,North,360,0.0,5.0,72,0.00,,,0.00,Rainwise IP-100,2013-03-03 09:01:00,
2013-03-03 03:06:00,25.0,18.0,30.18,North,360,1.0,2.0,72,0.00,,,0.00,Rainwise IP-100,2013-03-03 09:06:00,
2013-03-03 03:11:00,25.0,18.0,30.18,North,360,0.0,3.0,71,0.00,,,0.00,Rainwise IP-100,2013-03-03 09:11:00,
2013-03-03 03:16:00,25.0,18.0,30.19,North,360,1.0,3.0,72,0.00,,,0.00,Rainwise IP-100,2013-03-03 09:16:00,
2013-03-03 03:21:00,24.0,16.0,30.19,North,360,0.0,2.0,72,0.00,,,0.00,Rainwise IP-100,2013-03-03 09:21:00,
2013-03-03 03:26:00,24.0,16.0,30.18,North,360,0.0,2.0,72,0.00,,,0.00,Rainwise IP-100,2013-03-03 09:26:00,
2013-03-03 03:31:00,24.0,16.0,30.18,North,360,1.0,4.0,73,0.00,,,0.00,Rainwise IP-100,2013-03-03 09:31:00,
2013-03-03 03:36:00,24.0,16.0,30.19,North,360,3.0,3.0,73,0.00,,,0.00,Rainwise IP-100,2013-03-03 09:36:00,
2013-03-03 03:41:00,24.0,18.0,30.19,North,360,1.0,4.0,74,0.00,,,0.00,Rainwise IP-100,2013-03-03 09:41:00,
2013-03-03 03:46:00,24.0,18.0,30.19,North,360,0.0,3.0,75,0.00,,,0.00,Rainwise IP-100,2013-03-03 09:46:00,
2013-03-03 03:51:00,24.0,18.0,30.19,North,360,2.0,4.0,75,0.00,,,0.00,Rainwise IP-100,2013-03-03 09:51:00,
2013-03-03 03:57:00,24.0,18.0,30.19,North,360,0.0,2.0,77,0.00,,,0.00,Rainwise IP-100,2013-03-03 09:57:00,
2013-03-03 04:02:00,24.0,18.0,30.19,North,360,1.0,2.0,76,0.00,,,0.00,Rainwise IP-100,2013-03-03 10:02:00,
2013-03-03 04:07:00,24.0,18.0,30.19,North,360,0.0,2.0,77,0.00,,,0.00,Rainwise IP-100,2013-03-03 10:07:00,
2013-03-03 04:12:00,23.0,16.0,30.19,North,360,0.0,4.0,78,0.00,,,0.00,Rainwise IP-100,2013-03-03 10:12:00,
2013-03-03 04:17:00,23.0,16.0,30.19,North,360,1.0,3.0,78,0.00,,,0.00,Rainwise IP-100,2013-03-03 10:17:00,
2013-03-03 04:22:00,23.0,16.0,30.19,North,360,1.0,4.0,78,0.00,,,0.00,Rainwise IP-100,2013-03-03 10:22:00,
2013-03-03 04:27:00,23.0,16.0,30.19,North,360,1.0,2.0,78,0.00,,,0.00,Rainwise IP-100,2013-03-03 10:27:00,
2013-03-03 04:32:00,23.0,16.0,30.19,North,360,1.0,2.0,78,0.00,,,0.00,Rainwise IP-100,2013-03-03 10:32:00,
2013-03-03 04:37:00,23.0,16.0,30.19,North,360,0.0,3.0,78,0.00,,,0.00,Rainwise IP-100,2013-03-03 10:37:00,
2013-03-03 04:42:00,23.0,16.0,30.19,North,360,0.0,2.0,78,0.00,,,0.00,Rainwise IP-100,2013-03-03 10:42:00,
2013-03-03 04:47:00,23.0,16.0,30.19,North,360,0.0,1.0,78,0.00,,,0.00,Rainwise IP-100,2013-03-03 10:47:00,
2013-03-03 04:52:00,23.0,16.0,30.19,North,360,0.0,2.0,79,0.00,,,0.00,Rainwise IP-100,2013-03-03 10:52:00,
2013-03-03 04:57:00,23.0,16.0,30.19,North,360,1.0,1.0,79,0.00,,,0.00,Rainwise IP-100,2013-03-03 10:57:00,
2013-03-03 05:02:00,23.0,16.0,30.19,North,360,0.0,3.0,79,0.00,,,0.00,Rainwise IP-100,2013-03-03 11:02:00,
2013-03-03 05:07:00,23.0,16.0,30.19,North,360,1.0,2.0,79,0.00,,,0.00,Rainwise IP-100,2013-03-03 11:07:00,
2013-03-03 05:12:00,23.0,16.0,30.19,North,360,1.0,3.0,79,0.00,,,0.00,Rainwise IP-100,2013-03-03 11:12:00,
2013-03-03 05:17:00,23.0,16.0,30.19,North,360,0.0,3.0,79,0.00,,,0.00,Rainwise IP-100,2013-03-03 11:17:00,
2013-03-03 05:22:00,23.0,18.0,30.19,North,360,1.0,2.0,80,0.00,,,0.00,Rainwise IP-100,2013-03-03 11:22:00,
2013-03-03 05:27:00,23.0,18.0,30.19,North,360,0.0,5.0,80,0.00,,,0.00,Rainwise IP-100,2013-03-03 11:27:00,
2013-03-03 05:32:00,23.0,16.0,30.19,North,360,1.0,6.0,79,0.00,,,0.00,Rainwise IP-100,2013-03-03 11:32:00,
2013-03-03 05:37:00,23.0,18.0,30.19,North,360,0.0,4.0,80,0.00,,,0.00,Rainwise IP-100,2013-03-03 11:37:00,
2013-03-03 05:42:00,22.0,18.0,30.19,North,360,0.0,3.0,80,0.00,,,0.00,Rainwise IP-100,2013-03-03 11:42:00,
2013-03-03 05:47:00,22.0,18.0,30.19,North,360,1.0,2.0,80,0.00,,,0.00,Rainwise IP-100,2013-03-03 11:47:00,
2013-03-03 05:52:00,22.0,18.0,30.19,North,360,0.0,2.0,80,0.00,,,0.00,Rainwise IP-100,2013-03-03 11:52:00,
2013-03-03 05:57:00,22.0,18.0,30.19,North,360,1.0,4.0,81,0.00,,,0.00,Rainwise IP-100,2013-03-03 11:57:00,
2013-03-03 06:02:00,22.0,18.0,30.19,North,360,1.0,2.0,81,0.00,,,0.00,Rainwise IP-100,2013-03-03 12:02:00,
2013-03-03 06:07:00,22.0,18.0,30.20,North,360,0.0,2.0,81,0.00,,,0.00,Rainwise IP-100,2013-03-03 12:07:00,
2013-03-03 06:12:00,22.0,18.0,30.20,North,360,0.0,2.0,82,0.00,,,0.00,Rainwise IP-100,2013-03-03 12:12:00,
2013-03-03 06:17:00,22.0,18.0,30.20,North,360,2.0,2.0,82,0.00,,,0.00,Rainwise IP-100,2013-03-03 12:17:00,
2013-03-03 06:22:00,22.0,18.0,30.20,North,360,0.0,3.0,82,0.00,,,0.00,Rainwise IP-100,2013-03-03 12:22:00,
2013-03-03 06:27:00,22.0,18.0,30.20,North,360,1.0,2.0,82,0.00,,,0.00,Rainwise IP-100,2013-03-03 12:27:00,
2013-03-03 06:32:00,22.0,18.0,30.20,North,360,0.0,3.0,83,0.00,,,0.00,Rainwise IP-100,2013-03-03 12:32:00,
2013-03-03 06:37:00,22.0,18.0,30.19,North,360,0.0,3.0,82,0.00,,,0.00,Rainwise IP-100,2013-03-03 12:37:00,
2013-03-03 06:42:00,23.0,18.0,30.19,North,360,1.0,6.0,82,0.00,,,0.00,Rainwise IP-100,2013-03-03 12:42:00,
2013-03-03 06:47:00,23.0,18.0,30.20,North,360,0.0,3.0,81,0.00,,,0.00,Rainwise IP-100,2013-03-03 12:47:00,
2013-03-03 06:52:00,23.0,18.0,30.20,North,360,2.0,2.0,81,0.00,,,0.00,Rainwise IP-100,2013-03-03 12:52:00,
2013-03-03 06:57:00,24.0,21.0,30.21,North,360,2.0,3.0,81,0.00,,,0.00,Rainwise IP-100,2013-03-03 12:57:00,
2013-03-03 07:02:00,24.0,18.0,30.21,North,360,1.0,4.0,80,0.00,,,0.00,Rainwise IP-100,2013-03-03 13:02:00,
2013-03-03 07:07:00,24.0,18.0,30.21,NW,315,3.0,6.0,79,0.00,,,0.00,Rainwise IP-100,2013-03-03 13:07:00,
2013-03-03 07:12:00,25.0,21.0,30.21,NW,315,3.0,6.0,79,0.00,,,0.00,Rainwise IP-100,2013-03-03 13:12:00,
2013-03-03 07:17:00,25.0,21.0,30.21,NW,315,4.0,7.0,77,0.00,,,0.00,Rainwise IP-100,2013-03-03 13:17:00,
2013-03-03 07:22:00,25.0,21.0,30.21,NNW,337,0.0,6.0,78,0.00,,,0.00,Rainwise IP-100,2013-03-03 13:22:00,
2013-03-03 07:27:00,25.0,21.0,30.22,NNW,337,4.0,9.0,76,0.00,,,0.00,Rainwise IP-100,2013-03-03 13:27:00,
2013-03-03 07:32:00,26.0,21.0,30.22,NNW,337,2.0,6.0,76,0.00,,,0.00,Rainwise IP-100,2013-03-03 13:32:00,
2013-03-03 07:37:00,27.0,21.0,30.22,North,360,5.0,6.0,73,0.00,,,0.00,Rainwise IP-100,2013-03-03 13:37:00,
2013-03-03 07:42:00,28.0,21.0,30.22,North,360,4.0,5.0,74,0.00,,,0.00,Rainwise IP-100,2013-03-03 13:42:00,
2013-03-03 07:47:00,27.0,21.0,30.21,NW,315,6.0,6.0,72,0.00,,,0.00,Rainwise IP-100,2013-03-03 13:47:00,
2013-03-03 07:52:00,29.0,21.0,30.21,North,360,6.0,7.0,71,0.00,,,0.00,Rainwise IP-100,2013-03-03 13:52:00,
2013-03-03 07:57:00,29.0,23.0,30.21,NNE,22,6.0,10.0,72,0.00,,,0.00,Rainwise IP-100,2013-03-03 13:57:00,
2013-03-03 08:02:00,29.0,23.0,30.21,North,360,5.0,7.0,72,0.00,,,0.00,Rainwise IP-100,2013-03-03 14:02:00,
2013-03-03 08:07:00,29.0,21.0,30.21,NNE,22,6.0,9.0,70,0.00,,,0.00,Rainwise IP-100,2013-03-03 14:07:00,
2013-03-03 08:12:00,29.0,21.0,30.21,North,360,6.0,7.0,71,0.00,,,0.00,Rainwise IP-100,2013-03-03 14:12:00,
2013-03-03 08:17:00,30.0,23.0,30.21,NNW,337,2.0,7.0,70,0.00,,,0.00,Rainwise IP-100,2013-03-03 14:17:00,
2013-03-03 08:22:00,31.0,23.0,30.21,West,270,1.0,7.0,69,0.00,,,0.00,Rainwise IP-100,2013-03-03 14:22:00,
2013-03-03 08:27:00,30.0,21.0,30.22,NNE,22,6.0,7.0,67,0.00,,,0.00,Rainwise IP-100,2013-03-03 14:27:00,
2013-03-03 08:32:00,31.0,23.0,30.22,North,360,2.0,8.0,68,0.00,,,0.00,Rainwise IP-100,2013-03-03 14:32:00,
2013-03-03 08:37:00,30.0,21.0,30.22,NE,45,7.0,9.0,65,0.00,,,0.00,Rainwise IP-100,2013-03-03 14:37:00,
2013-03-03 08:42:00,30.0,21.0,30.22,North,360,6.0,9.0,64,0.00,,,0.00,Rainwise IP-100,2013-03-03 14:42:00,
2013-03-03 08:47:00,30.0,21.0,30.22,NE,45,3.0,9.0,65,0.00,,,0.00,Rainwise IP-100,2013-03-03 14:47:00,
2013-03-03 08:52:00,31.0,21.0,30.22,NNW,337,3.0,7.0,63,0.00,,,0.00,Rainwise IP-100,2013-03-03 14:52:00,
2013-03-03 08:57:00,31.0,21.0,30.22,North,360,0.0,6.0,65,0.00,,,0.00,Rainwise IP-100,2013-03-03 14:57:00,
2013-03-03 09:02:00,30.0,21.0,30.22,North,360,2.0,9.0,63,0.00,,,0.00,Rainwise IP-100,2013-03-03 15:02:00,
2013-03-03 09:07:00,31.0,18.0,30.23,NW,315,1.0,9.0,60,0.00,,,0.00,Rainwise IP-100,2013-03-03 15:07:00,
2013-03-03 09:12:00,31.0,21.0,30.23,North,360,4.0,7.0,63,0.00,,,0.00,Rainwise IP-100,2013-03-03 15:12:00,
2013-03-03 09:17:00,32.0,21.0,30.22,North,360,8.0,9.0,62,0.00,,,0.00,Rainwise IP-100,2013-03-03 15:17:00,
2013-03-03 09:22:00,32.0,21.0,30.22,NE,45,6.0,10.0,62,0.00,,,0.00,Rainwise IP-100,2013-03-03 15:22:00,
2013-03-03 09:27:00,32.0,21.0,30.22,WNW,292,1.0,8.0,59,0.00,,,0.00,Rainwise IP-100,2013-03-03 15:27:00,
2013-03-03 09:32:00,32.0,18.0,30.22,North,360,6.0,8.0,57,0.00,,,0.00,Rainwise IP-100,2013-03-03 15:32:00,
2013-03-03 09:37:00,34.0,23.0,30.21,NE,45,5.0,7.0,60,0.00,,,0.00,Rainwise IP-100,2013-03-03 15:37:00,
2013-03-03 09:42:00,34.0,23.0,30.21,NNE,22,2.0,9.0,59,0.00,,,0.00,Rainwise IP-100,2013-03-03 15:42:00,
2013-03-03 09:47:00,32.0,18.0,30.20,NW,315,1.0,9.0,53,0.00,,,0.00,Rainwise IP-100,2013-03-03 15:47:00,
2013-03-03 09:52:00,33.0,21.0,30.20,NE,45,6.0,9.0,59,0.00,,,0.00,Rainwise IP-100,2013-03-03 15:52:00,
2013-03-03 09:57:00,33.0,18.0,30.21,WSW,247,1.0,7.0,50,0.00,,,0.00,Rainwise IP-100,2013-03-03 15:57:00,
2013-03-03 10:02:00,35.0,18.0,30.21,SW,225,5.0,6.0,49,0.00,,,0.00,Rainwise IP-100,2013-03-03 16:02:00,
2013-03-03 10:07:00,33.0,18.0,30.22,NE,45,7.0,10.0,50,0.00,,,0.00,Rainwise IP-100,2013-03-03 16:07:00,
2013-03-03 10:12:00,34.0,21.0,30.22,NE,45,6.0,8.0,54,0.00,,,0.00,Rainwise IP-100,2013-03-03 16:12:00,
2013-03-03 10:17:00,33.0,16.0,30.21,NW,315,4.0,9.0,48,0.00,,,0.00,Rainwise IP-100,2013-03-03 16:17:00,
2013-03-03 10:22:00,34.0,16.0,30.21,West,270,1.0,7.0,45,0.00,,,0.00,Rainwise IP-100,2013-03-03 16:22:00,
2013-03-03 10:27:00,34.0,16.0,30.21,North,360,7.0,9.0,46,0.00,,,0.00,Rainwise IP-100,2013-03-03 16:27:00,
2013-03-03 10:32:00,33.0,18.0,30.21,NW,315,1.0,10.0,50,0.00,,,0.00,Rainwise IP-100,2013-03-03 16:32:00,
2013-03-03 10:37:00,34.0,16.0,30.21,NW,315,4.0,8.0,47,0.00,,,0.00,Rainwise IP-100,2013-03-03 16:37:00,
2013-03-03 10:42:00,36.0,21.0,30.21,SSW,202,4.0,7.0,50,0.00,,,0.00,Rainwise IP-100,2013-03-03 16:42:00,
2013-03-03 10:47:00,35.0,16.0,30.21,North,360,10.0,10.0,45,0.00,,,0.00,Rainwise IP-100,2013-03-03 16:47:00,
2013-03-03 10:52:00,36.0,18.0,30.21,WSW,247,0.0,10.0,47,0.00,,,0.00,Rainwise IP-100,2013-03-03 16:52:00,
2013-03-03 10:57:00,37.0,18.0,30.19,WNW,292,2.0,7.0,45,0.00,,,0.00,Rainwise IP-100,2013-03-03 16:57:00,
2013-03-03 11:02:00,37.0,16.0,30.19,WSW,247,0.0,6.0,41,0.00,,,0.00,Rainwise IP-100,2013-03-03 17:02:00,
2013-03-03 11:07:00,37.0,18.0,30.19,NE,45,0.0,7.0,44,0.00,,,0.00,Rainwise IP-100,2013-03-03 17:07:00,
2013-03-03 11:12:00,36.0,16.0,30.19,SSW,202,1.0,8.0,44,0.00,,,0.00,Rainwise IP-100,2013-03-03 17:12:00,
2013-03-03 11:17:00,36.0,16.0,30.19,South,180,1.0,9.0,44,0.00,,,0.00,Rainwise IP-100,2013-03-03 17:17:00,
2013-03-03 11:22:00,36.0,16.0,30.19,NW,315,4.0,9.0,43,0.00,,,0.00,Rainwise IP-100,2013-03-03 17:22:00,
2013-03-03 11:27:00,37.0,16.0,30.19,WSW,247,0.0,6.0,42,0.00,,,0.00,Rainwise IP-100,2013-03-03 17:27:00,
2013-03-03 11:32:00,37.0,16.0,30.19,ENE,67,4.0,6.0,43,0.00,,,0.00,Rainwise IP-100,2013-03-03 17:32:00,
2013-03-03 11:37:00,37.0,16.0,30.19,NW,315,5.0,12.0,42,0.00,,,0.00,Rainwise IP-100,2013-03-03 17:37:00,
2013-03-03 11:42:00,37.0,16.0,30.19,SW,225,4.0,7.0,40,0.00,,,0.00,Rainwise IP-100,2013-03-03 17:42:00,
2013-03-03 11:47:00,37.0,16.0,30.19,SW,225,1.0,10.0,40,0.00,,,0.00,Rainwise IP-100,2013-03-03 17:47:00,
2013-03-03 11:52:00,36.0,14.0,30.19,NE,45,2.0,9.0,36,0.00,,,0.00,Rainwise IP-100,2013-03-03 17:52:00,
2013-03-03 11:57:00,36.0,16.0,30.17,NW,315,9.0,13.0,42,0.00,,,0.00,Rainwise IP-100,2013-03-03 17:57:00,
2013-03-03 12:02:00,37.0,16.0,30.17,SW,225,7.0,9.0,41,0.00,,,0.00,Rainwise IP-100,2013-03-03 18:02:00,
2013-03-03 12:07:00,37.0,16.0,30.18,SSW,202,6.0,9.0,43,0.00,,,0.00,Rainwise IP-100,2013-03-03 18:07:00,
2013-03-03 12:12:00,38.0,18.0,30.18,West,270,6.0,8.0,42,0.00,,,0.00,Rainwise IP-100,2013-03-03 18:12:00,
2013-03-03 12:17:00,38.0,16.0,30.17,SSW,202,0.0,7.0,38,0.00,,,0.00,Rainwise IP-100,2013-03-03 18:17:00,
2013-03-03 12:22:00,39.0,16.0,30.17,ESE,112,3.0,7.0,38,0.00,,,0.00,Rainwise IP-100,2013-03-03 18:22:00,
2013-03-03 12:27:00,39.0,18.0,30.15,East,90,1.0,7.0,40,0.00,,,0.00,Rainwise IP-100,2013-03-03 18:27:00,
2013-03-03 12:32:00,39.0,18.0,30.15,SE,135,1.0,9.0,43,0.00,,,0.00,Rainwise IP-100,2013-03-03 18:32:00,
2013-03-03 12:37:00,39.0,16.0,30.14,SSE,157,7.0,9.0,39,0.00,,,0.00,Rainwise IP-100,2013-03-03 18:37:00,
2013-03-03 12:42:00,39.0,16.0,30.14,SW,225,2.0,7.0,39,0.00,,,0.00,Rainwise IP-100,2013-03-03 18:42:00,
2013-03-03 12:47:00,38.0,16.0,30.15,SW,225,6.0,7.0,40,0.00,,,0.00,Rainwise IP-100,2013-03-03 18:47:00,
2013-03-03 12:52:00,36.0,16.0,30.15,SW,225,9.0,9.0,41,0.00,,,0.00,Rainwise IP-100,2013-03-03 18:52:00,
2013-03-03 12:57:00,38.0,18.0,30.15,SSW,202,9.0,10.0,42,0.00,,,0.00,Rainwise IP-100,2013-03-03 18:57:00,
2013-03-03 13:02:00,37.0,16.0,30.15,SSW,202,5.0,9.0,42,0.00,,,0.00,Rainwise IP-100,2013-03-03 19:02:00,
2013-03-03 13:07:00,38.0,18.0,30.15,SW,225,3.0,10.0,42,0.00,,,0.00,Rainwise IP-100,2013-03-03 19:07:00,
2013-03-03 13:12:00,38.0,18.0,30.15,SW,225,4.0,8.0,43,0.00,,,0.00,Rainwise IP-100,2013-03-03 19:12:00,
2013-03-03 13:17:00,39.0,21.0,30.14,SW,225,7.0,8.0,44,0.00,,,0.00,Rainwise IP-100,2013-03-03 19:17:00,
2013-03-03 13:22:00,38.0,18.0,30.14,SSW,202,7.0,10.0,44,0.00,,,0.00,Rainwise IP-100,2013-03-03 19:22:00,
2013-03-03 13:27:00,38.0,18.0,30.15,SW,225,7.0,11.0,43,0.00,,,0.00,Rainwise IP-100,2013-03-03 19:27:00,
2013-03-03 13:32:00,38.0,18.0,30.15,SW,225,4.0,13.0,44,0.00,,,0.00,Rainwise IP-100,2013-03-03 19:32:00,
2013-03-03 13:37:00,38.0,16.0,30.14,WNW,292,7.0,10.0,41,0.00,,,0.00,Rainwise IP-100,2013-03-03 19:37:00,
2013-03-03 13:42:00,40.0,21.0,30.14,SE,135,3.0,11.0,43,0.00,,,0.00,Rainwise IP-100,2013-03-03 19:42:00,
2013-03-03 13:47:00,41.0,18.0,30.13,SW,225,6.0,8.0,38,0.00,,,0.00,Rainwise IP-100,2013-03-03 19:47:00,
2013-03-03 13:52:00,39.0,16.0,30.13,WSW,247,7.0,12.0,37,0.00,,,0.00,Rainwise IP-100,2013-03-03 19:52:00,
2013-03-03 13:57:00,39.0,18.0,30.15,SW,225,8.0,12.0,41,0.00,,,0.00,Rainwise IP-100,2013-03-03 19:57:00,
2013-03-03 14:03:00,38.0,16.0,30.15,WSW,247,11.0,13.0,39,0.00,,,0.00,Rainwise IP-100,2013-03-03 20:03:00,
2013-03-03 14:08:00,39.0,18.0,30.14,WSW,247,7.0,11.0,41,0.00,,,0.00,Rainwise IP-100,2013-03-03 20:08:00,
2013-03-03 14:13:00,39.0,18.0,30.14,SW,225,8.0,12.0,41,0.00,,,0.00,Rainwise IP-100,2013-03-03 20:13:00,
2013-03-03 14:18:00,39.0,18.0,30.13,SW,225,10.0,11.0,43,0.00,,,0.00,Rainwise IP-100,2013-03-03 20:18:00,
2013-03-03 14:23:00,38.0,16.0,30.13,WSW,247,8.0,11.0,41,0.00,,,0.00,Rainwise IP-100,2013-03-03 20:23:00,
2013-03-03 14:28:00,40.0,18.0,30.13,SW,225,1.0,10.0,40,0.00,,,0.00,Rainwise IP-100,2013-03-03 20:28:00,
2013-03-03 14:33:00,39.0,18.0,30.13,SSW,202,4.0,11.0,41,0.00,,,0.00,Rainwise IP-100,2013-03-03 20:33:00,
2013-03-03 14:38:00,39.0,16.0,30.12,SSW,202,9.0,10.0,39,0.00,,,0.00,Rainwise IP-100,2013-03-03 20:38:00,
2013-03-03 14:43:00,40.0,18.0,30.12,SSW,202,4.0,10.0,40,0.00,,,0.00,Rainwise IP-100,2013-03-03 20:43:00,
2013-03-03 14:48:00,41.0,18.0,30.12,NNE,22,4.0,9.0,40,0.00,,,0.00,Rainwise IP-100,2013-03-03 20:48:00,
2013-03-03 14:53:00,42.0,18.0,30.12,WNW,292,1.0,7.0,37,0.00,,,0.00,Rainwise IP-100,2013-03-03 20:53:00,
2013-03-03 14:58:00,41.0,18.0,30.12,NE,45,6.0,6.0,37,0.00,,,0.00,Rainwise IP-100,2013-03-03 20:58:00,
2013-03-03 15:03:00,42.0,18.0,30.12,North,360,0.0,7.0,37,0.00,,,0.00,Rainwise IP-100,2013-03-03 21:03:00,
2013-03-03 15:08:00,41.0,18.0,30.11,WNW,292,6.0,11.0,37,0.00,,,0.00,Rainwise IP-100,2013-03-03 21:08:00,
2013-03-03 15:13:00,42.0,16.0,30.11,SW,225,7.0,7.0,35,0.00,,,0.00,Rainwise IP-100,2013-03-03 21:13:00,
2013-03-03 15:18:00,41.0,16.0,30.11,SE,135,0.0,9.0,34,0.00,,,0.00,Rainwise IP-100,2013-03-03 21:18:00,
2013-03-03 15:23:00,41.0,16.0,30.11,NNW,337,2.0,6.0,33,0.00,,,0.00,Rainwise IP-100,2013-03-03 21:23:00,
2013-03-03 15:28:00,42.0,16.0,30.11,SE,135,4.0,6.0,33,0.00,,,0.00,Rainwise IP-100,2013-03-03 21:28:00,
2013-03-03 15:33:00,43.0,18.0,30.11,West,270,1.0,6.0,34,0.00,,,0.00,Rainwise IP-100,2013-03-03 21:33:00,
2013-03-03 15:38:00,41.0,14.0,30.11,SW,225,7.0,7.0,32,0.00,,,0.00,Rainwise IP-100,2013-03-03 21:38:00,
2013-03-03 15:43:00,42.0,16.0,30.11,West,270,3.0,7.0,35,0.00,,,0.00,Rainwise IP-100,2013-03-03 21:43:00,
2013-03-03 15:48:00,42.0,16.0,30.11,NNE,22,3.0,8.0,35,0.00,,,0.00,Rainwise IP-100,2013-03-03 21:48:00,
2013-03-03 15:53:00,42.0,18.0,30.11,NE,45,1.0,7.0,36,0.00,,,0.00,Rainwise IP-100,2013-03-03 21:53:00,
2013-03-03 15:58:00,41.0,16.0,30.11,SE,135,3.0,7.0,34,0.00,,,0.00,Rainwise IP-100,2013-03-03 21:58:00,
2013-03-03 16:03:00,41.0,16.0,30.11,SW,225,0.0,6.0,36,0.00,,,0.00,Rainwise IP-100,2013-03-03 22:03:00,
2013-03-03 16:08:00,41.0,18.0,30.10,SSW,202,0.0,6.0,37,0.00,,,0.00,Rainwise IP-100,2013-03-03 22:08:00,
2013-03-03 16:13:00,40.0,16.0,30.10,West,270,4.0,6.0,35,0.00,,,0.00,Rainwise IP-100,2013-03-03 22:13:00,
2013-03-03 16:18:00,39.0,16.0,30.11,West,270,9.0,9.0,36,0.00,,,0.00,Rainwise IP-100,2013-03-03 22:18:00,
2013-03-03 16:23:00,39.0,16.0,30.11,West,270,5.0,10.0,37,0.00,,,0.00,Rainwise IP-100,2013-03-03 22:23:00,
2013-03-03 16:28:00,39.0,16.0,30.11,SW,225,4.0,7.0,38,0.00,,,0.00,Rainwise IP-100,2013-03-03 22:28:00,
2013-03-03 16:33:00,39.0,16.0,30.11,SW,225,2.0,6.0,38,0.00,,,0.00,Rainwise IP-100,2013-03-03 22:33:00,
2013-03-03 16:38:00,39.0,16.0,30.11,SSW,202,5.0,6.0,39,0.00,,,0.00,Rainwise IP-100,2013-03-03 22:38:00,
2013-03-03 16:43:00,39.0,16.0,30.11,SW,225,2.0,5.0,38,0.00,,,0.00,Rainwise IP-100,2013-03-03 22:43:00,
2013-03-03 16:48:00,39.0,18.0,30.11,West,270,0.0,4.0,40,0.00,,,0.00,Rainwise IP-100,2013-03-03 22:48:00,
2013-03-03 16:53:00,39.0,18.0,30.11,WSW,247,0.0,1.0,40,0.00,,,0.00,Rainwise IP-100,2013-03-03 22:53:00,
2013-03-03 16:58:00,39.0,18.0,30.10,SSW,202,1.0,2.0,40,0.00,,,0.00,Rainwise IP-100,2013-03-03 22:58:00,
2013-03-03 17:03:00,39.0,18.0,30.10,WNW,292,2.0,6.0,40,0.00,,,0.00,Rainwise IP-100,2013-03-03 23:03:00,
2013-03-03 17:08:00,39.0,18.0,30.10,West,270,1.0,6.0,40,0.00,,,0.00,Rainwise IP-100,2013-03-03 23:08:00,
2013-03-03 17:13:00,39.0,18.0,30.10,NW,315,1.0,4.0,41,0.00,,,0.00,Rainwise IP-100,2013-03-03 23:13:00,
2013-03-03 17:18:00,39.0,16.0,30.10,NW,315,6.0,6.0,39,0.00,,,0.00,Rainwise IP-100,2013-03-03 23:18:00,
2013-03-03 17:23:00,39.0,16.0,30.10,West,270,2.0,6.0,39,0.00,,,0.00,Rainwise IP-100,2013-03-03 23:23:00,
2013-03-03 17:28:00,39.0,18.0,30.09,West,270,2.0,3.0,40,0.00,,,0.00,Rainwise IP-100,2013-03-03 23:28:00,
2013-03-03 17:33:00,39.0,18.0,30.09,West,270,2.0,3.0,41,0.00,,,0.00,Rainwise IP-100,2013-03-03 23:33:00,
2013-03-03 17:38:00,38.0,16.0,30.09,WSW,247,2.0,4.0,40,0.00,,,0.00,Rainwise IP-100,2013-03-03 23:38:00,
2013-03-03 17:43:00,38.0,18.0,30.09,WSW,247,0.0,3.0,42,0.00,,,0.00,Rainwise IP-100,2013-03-03 23:43:00,
2013-03-03 17:48:00,38.0,16.0,30.09,WSW,247,0.0,0.0,41,0.00,,,0.00,Rainwise IP-100,2013-03-03 23:48:00,
2013-03-03 17:53:00,38.0,16.0,30.09,WSW,247,0.0,0.0,41,0.00,,,0.00,Rainwise IP-100,2013-03-03 23:53:00,
2013-03-03 17:58:00,38.0,16.0,30.09,WSW,247,0.0,0.0,40,0.00,,,0.00,Rainwise IP-100,2013-03-03 23:58:00,
2013-03-03 18:03:00,38.0,16.0,30.09,WSW,247,0.0,0.0,41,0.00,,,0.00,Rainwise IP-100,2013-03-04 00:03:00,
2013-03-03 18:08:00,38.0,18.0,30.09,WSW,247,0.0,0.0,42,0.00,,,0.00,Rainwise IP-100,2013-03-04 00:08:00,
2013-03-03 18:13:00,38.0,18.0,30.09,WSW,247,0.0,0.0,42,0.00,,,0.00,Rainwise IP-100,2013-03-04 00:13:00,
2013-03-03 18:18:00,38.0,18.0,30.09,WSW,247,2.0,3.0,44,0.00,,,0.00,Rainwise IP-100,2013-03-04 00:18:00,
2013-03-03 18:23:00,38.0,18.0,30.09,WSW,247,0.0,3.0,44,0.00,,,0.00,Rainwise IP-100,2013-03-04 00:23:00,
2013-03-03 18:28:00,38.0,18.0,30.09,WSW,247,0.0,2.0,44,0.00,,,0.00,Rainwise IP-100,2013-03-04 00:28:00,
2013-03-03 18:33:00,38.0,18.0,30.09,WSW,247,0.0,1.0,45,0.00,,,0.00,Rainwise IP-100,2013-03-04 00:33:00,
2013-03-03 18:38:00,37.0,18.0,30.09,WSW,247,0.0,0.0,44,0.00,,,0.00,Rainwise IP-100,2013-03-04 00:38:00,
2013-03-03 18:43:00,37.0,18.0,30.09,WSW,247,0.0,0.0,45,0.00,,,0.00,Rainwise IP-100,2013-03-04 00:43:00,
2013-03-03 18:48:00,37.0,18.0,30.10,WSW,247,0.0,0.0,46,0.00,,,0.00,Rainwise IP-100,2013-03-04 00:48:00,
2013-03-03 18:53:00,37.0,18.0,30.10,WSW,247,0.0,0.0,45,0.00,,,0.00,Rainwise IP-100,2013-03-04 00:53:00,
2013-03-03 18:58:00,37.0,18.0,30.10,WSW,247,0.0,0.0,45,0.00,,,0.00,Rainwise IP-100,2013-03-04 00:58:00,
2013-03-03 19:03:00,36.0,16.0,30.10,WSW,247,0.0,0.0,45,0.00,,,0.00,Rainwise IP-100,2013-03-04 01:03:00,
2013-03-03 19:08:00,36.0,18.0,30.09,WSW,247,0.0,0.0,46,0.00,,,0.00,Rainwise IP-100,2013-03-04 01:08:00,
2013-03-03 19:13:00,36.0,21.0,30.09,ENE,67,0.0,3.0,53,0.00,,,0.00,Rainwise IP-100,2013-03-04 01:13:00,
2013-03-03 19:18:00,36.0,21.0,30.09,ENE,67,0.0,0.0,50,0.00,,,0.00,Rainwise IP-100,2013-03-04 01:18:00,
2013-03-03 19:23:00,36.0,21.0,30.09,ENE,67,0.0,0.0,52,0.00,,,0.00,Rainwise IP-100,2013-03-04 01:23:00,
2013-03-03 19:28:00,36.0,21.0,30.10,ENE,67,0.0,0.0,51,0.00,,,0.00,Rainwise IP-100,2013-03-04 01:28:00,
2013-03-03 19:33:00,36.0,21.0,30.10,ENE,67,1.0,0.0,52,0.00,,,0.00,Rainwise IP-100,2013-03-04 01:33:00,
2013-03-03 19:38:00,36.0,24.0,30.09,ENE,67,0.0,2.0,60,0.00,,,0.00,Rainwise IP-100,2013-03-04 01:38:00,
2013-03-03 19:43:00,36.0,24.0,30.09,ENE,67,0.0,1.0,60,0.00,,,0.00,Rainwise IP-100,2013-03-04 01:43:00,
2013-03-03 19:48:00,35.0,24.0,30.10,ENE,67,0.0,0.0,63,0.00,,,0.00,Rainwise IP-100,2013-03-04 01:48:00,
2013-03-03 19:53:00,35.0,24.0,30.10,ENE,67,0.0,0.0,65,0.00,,,0.00,Rainwise IP-100,2013-03-04 01:53:00,
2013-03-03 19:58:00,35.0,24.0,30.10,ENE,67,0.0,0.0,65,0.00,,,0.00,Rainwise IP-100,2013-03-04 01:58:00,
2013-03-03 20:03:00,35.0,24.0,30.10,ENE,67,0.0,0.0,64,0.00,,,0.00,Rainwise IP-100,2013-03-04 02:03:00,
2013-03-03 20:08:00,35.0,24.0,30.10,ENE,67,1.0,3.0,63,0.00,,,0.00,Rainwise IP-100,2013-03-04 02:08:00,
2013-03-03 20:13:00,35.0,23.0,30.10,NE,45,0.0,3.0,62,0.00,,,0.00,Rainwise IP-100,2013-03-04 02:13:00,
2013-03-03 20:18:00,35.0,23.0,30.10,NE,45,0.0,0.0,61,0.00,,,0.00,Rainwise IP-100,2013-03-04 02:18:00,
2013-03-03 20:23:00,35.0,23.0,30.10,NE,45,0.0,0.0,61,0.00,,,0.00,Rainwise IP-100,2013-03-04 02:23:00,
2013-03-03 20:28:00,35.0,23.0,30.10,NE,45,0.0,0.0,62,0.00,,,0.00,Rainwise IP-100,2013-03-04 02:28:00,
2013-03-03 20:33:00,35.0,24.0,30.10,NE,45,0.0,1.0,65,0.00,,,0.00,Rainwise IP-100,2013-03-04 02:33:00,
2013-03-03 20:38:00,35.0,24.0,30.09,NE,45,0.0,1.0,64,0.00,,,0.00,Rainwise IP-100,2013-03-04 02:38:00,
2013-03-03 20:43:00,35.0,24.0,30.09,NE,45,0.0,0.0,65,0.00,,,0.00,Rainwise IP-100,2013-03-04 02:43:00,
2013-03-03 20:48:00,35.0,24.0,30.10,NE,45,0.0,0.0,65,0.00,,,0.00,Rainwise IP-100,2013-03-04 02:48:00,
2013-03-03 20:53:00,35.0,24.0,30.10,NE,45,0.0,0.0,64,0.00,,,0.00,Rainwise IP-100,2013-03-04 02:53:00,
2013-03-03 20:58:00,35.0,24.0,30.10,NE,45,0.0,0.0,65,0.00,,,0.00,Rainwise IP-100,2013-03-04 02:58:00,
2013-03-03 21:03:00,35.0,24.0,30.10,NE,45,0.0,0.0,66,0.00,,,0.00,Rainwise IP-100,2013-03-04 03:03:00,
2013-03-03 21:08:00,35.0,26.0,30.11,NE,45,0.0,0.0,68,0.00,,,0.00,Rainwise IP-100,2013-03-04 03:08:00,
2013-03-03 21:13:00,35.0,26.0,30.11,NE,45,0.0,0.0,70,0.00,,,0.00,Rainwise IP-100,2013-03-04 03:13:00,
2013-03-03 21:18:00,35.0,26.0,30.10,NE,45,0.0,0.0,70,0.00,,,0.00,Rainwise IP-100,2013-03-04 03:18:00,
2013-03-03 21:23:00,35.0,26.0,30.10,NE,45,0.0,0.0,69,0.00,,,0.00,Rainwise IP-100,2013-03-04 03:23:00,
2013-03-03 21:28:00,35.0,24.0,30.10,NE,45,0.0,0.0,67,0.00,,,0.00,Rainwise IP-100,2013-03-04 03:28:00,
2013-03-03 21:33:00,35.0,26.0,30.10,NE,45,0.0,0.0,68,0.00,,,0.00,Rainwise IP-100,2013-03-04 03:33:00,
2013-03-03 21:38:00,35.0,26.0,30.10,NE,45,0.0,0.0,71,0.00,,,0.00,Rainwise IP-100,2013-03-04 03:38:00,
2013-03-03 21:43:00,35.0,26.0,30.10,NE,45,0.0,0.0,72,0.00,,,0.00,Rainwise IP-100,2013-03-04 03:43:00,
2013-03-03 21:48:00,35.0,26.0,30.10,NE,45,0.0,0.0,72,0.00,,,0.00,Rainwise IP-100,2013-03-04 03:48:00,
2013-03-03 21:53:00,35.0,28.0,30.10,NE,45,0.0,0.0,73,0.00,,,0.00,Rainwise IP-100,2013-03-04 03:53:00,
2013-03-03 21:58:00,35.0,28.0,30.10,NE,45,0.0,0.0,73,0.00,,,0.00,Rainwise IP-100,2013-03-04 03:58:00,
2013-03-03 22:03:00,35.0,28.0,30.10,NE,45,0.0,0.0,73,0.00,,,0.00,Rainwise IP-100,2013-03-04 04:03:00,
2013-03-03 22:08:00,35.0,28.0,30.10,NE,45,0.0,0.0,73,0.00,,,0.00,Rainwise IP-100,2013-03-04 04:08:00,
2013-03-03 22:13:00,35.0,26.0,30.10,NE,45,0.0,0.0,72,0.00,,,0.00,Rainwise IP-100,2013-03-04 04:13:00,
2013-03-03 22:18:00,35.0,26.0,30.10,NE,45,0.0,0.0,72,0.00,,,0.00,Rainwise IP-100,2013-03-04 04:18:00,
2013-03-03 22:23:00,35.0,26.0,30.10,NE,45,0.0,0.0,71,0.00,,,0.00,Rainwise IP-100,2013-03-04 04:23:00,
2013-03-03 22:28:00,35.0,26.0,30.10,NE,45,0.0,0.0,71,0.00,,,0.00,Rainwise IP-100,2013-03-04 04:28:00,
2013-03-03 22:33:00,35.0,26.0,30.10,NE,45,0.0,0.0,71,0.00,,,0.00,Rainwise IP-100,2013-03-04 04:33:00,
2013-03-03 22:38:00,35.0,26.0,30.10,NE,45,1.0,0.0,71,0.00,,,0.00,Rainwise IP-100,2013-03-04 04:38:00,
2013-03-03 22:43:00,35.0,26.0,30.10,NE,45,0.0,2.0,70,0.00,,,0.00,Rainwise IP-100,2013-03-04 04:43:00,
2013-03-03 22:48:00,35.0,28.0,30.10,NE,45,1.0,3.0,73,0.00,,,0.00,Rainwise IP-100,2013-03-04 04:48:00,
2013-03-03 22:53:00,35.0,28.0,30.10,NE,45,1.0,2.0,73,0.00,,,0.00,Rainwise IP-100,2013-03-04 04:53:00,
2013-03-03 22:58:00,35.0,28.0,30.10,NE,45,0.0,2.0,73,0.00,,,0.00,Rainwise IP-100,2013-03-04 04:58:00,
2013-03-03 23:00:00,35.0,26.0,30.10,NE,45,3.0,3.0,72,0.00,,,0.00,Rainwise IP-100,2013-03-04 05:00:00,
2013-03-03 23:05:00,35.0,28.0,30.10,NE,45,0.0,4.0,73,0.00,,,0.00,Rainwise IP-100,2013-03-04 05:05:00,
2013-03-03 23:10:00,35.0,26.0,30.10,NE,45,0.0,0.0,72,0.00,,,0.00,Rainwise IP-100,2013-03-04 05:10:00,
2013-03-03 23:15:00,35.0,24.0,30.10,NE,45,0.0,0.0,65,0.00,,,0.00,Rainwise IP-100,2013-03-04 05:15:00,
2013-03-03 23:20:00,35.0,26.0,30.10,NW,315,3.0,0.0,70,0.00,,,0.00,Rainwise IP-100,2013-03-04 05:20:00,
2013-03-03 23:25:00,35.0,26.0,30.11,NW,315,1.0,4.0,69,0.00,,,0.00,Rainwise IP-100,2013-03-04 05:25:00,
2013-03-03 23:30:00,35.0,26.0,30.11,NW,315,4.0,5.0,68,0.00,,,0.00,Rainwise IP-100,2013-03-04 05:30:00,
2013-03-03 23:35:00,35.0,26.0,30.11,NW,315,3.0,4.0,68,0.00,,,0.00,Rainwise IP-100,2013-03-04 05:35:00,
2013-03-03 23:40:00,35.0,24.0,30.11,NW,315,0.0,4.0,67,0.00,,,0.00,Rainwise IP-100,2013-03-04 05:40:00,
2013-03-03 23:45:00,35.0,26.0,30.11,NW,315,1.0,2.0,68,0.00,,,0.00,Rainwise IP-100,2013-03-04 05:45:00,
2013-03-03 23:46:00,35.0,26.0,30.11,NW,315,2.0,2.0,68,0.00,,,0.00,Rainwise IP-100,2013-03-04 05:46:00,
2013-03-03 23:51:00,35.0,24.0,30.11,NW,315,0.0,2.0,67,0.00,,,0.00,Rainwise IP-100,2013-03-04 05:51:00,
2013-03-03 23:56:00,35.0,24.0,30.11,NW,315,0.0,0.0,66,0.00,,,0.00,Rainwise IP-100,2013-03-04 05:56:00,